Weather History for KHOT - September, 2013

Change the Weather History Date:

Thursday, September 19, 2013

  Actual Average Record
Temperature  
Mean Temperature 83 °F -  
Max Temperature 93 °F 86 °F 98 °F (1960)
Min Temperature 73 °F 61 °F 45 °F (1981)
Cooling Degree Days 18    
Growing Degree Days 33 (Base 50)    
Moisture  
Dew Point 68 °F    
Average Humidity 63    
Maximum Humidity 79    
Minimum Humidity 39    
Precipitation  
Precipitation 0.00 in - - ()
Sea Level Pressure  
Sea Level Pressure 29.98 in    
Wind  
Wind Speed 5 mph (SE)    
Max Wind Speed 12 mph    
Max Gust Speed -    
Visibility 10 miles    
Events      
Averages and records for this station are not official NWS values.
T = Trace of Precipitation, MM = Missing Value Source: NWS Daily Summary

Daily Weather History Graph

Daily Weather History Graph

Search for Another Location

Airport or City:

Trip Planner

Search our weather history database for the weather conditions in past years. The results will help you decide how hot, cold, wet, or windy it might be!

Date:

Astronomy

Sep. 19, 2013 Rise Set
Actual Time 6:58 AM CDT 7:13 PM CDT
Civil Twilight 6:33 AM CDT 7:38 PM CDT
Nautical Twilight 6:03 AM CDT 8:07 PM CDT
Astronomical Twilight 5:34 AM CDT 8:37 PM CDT
Moon 7:15 PM CDT (9/19) 7:06 AM CDT (9/19)
Length of Visible Light 13h 04m
Length of Day
12h 14m
Full, 100% of the Moon is Illuminated
Sep 19
Full
Sep 26
Last Quarter
Oct 4
New
Oct 11
First Quarter
Oct 18
Full

Hourly Weather History & Observations

Time (CDT) Temp. Heat Index Dew Point Humidity Pressure Visibility Wind Dir Wind Speed Gust Speed Precip Events Conditions
12:53 AM 73.9 °F - 66.9 °F 79% 29.98 in 8.0 mi East 5.8 mph - N/A   Clear
1:53 AM 78.1 °F - 64.9 °F 64% 29.98 in 9.0 mi ESE 4.6 mph - N/A   Clear
2:53 AM 77.0 °F - 66.0 °F 69% 29.98 in 10.0 mi Calm Calm - N/A   Clear
3:53 AM 77.0 °F - 66.9 °F 71% 29.98 in 10.0 mi Variable 3.5 mph - N/A   Clear
4:53 AM 75.9 °F - 66.9 °F 74% 29.98 in 10.0 mi ESE 3.5 mph - N/A   Clear
5:53 AM 77.0 °F - 68.0 °F 74% 30.00 in 10.0 mi South 5.8 mph - N/A   Clear
6:53 AM 75.9 °F - 68.0 °F 76% 30.01 in 10.0 mi Variable 3.5 mph - N/A   Scattered Clouds
7:53 AM 77.0 °F - 69.1 °F 76% 30.03 in 10.0 mi SSE 3.5 mph - N/A   Scattered Clouds
8:00 AM 77.0 °F - 69.8 °F 78% 30.05 in 10.0 mi South 4.6 mph - N/A   Mostly Cloudy
8:13 AM 77.0 °F - 69.8 °F 78% 30.05 in 10.0 mi SE 3.5 mph - N/A   Overcast
8:53 AM 80.1 °F 83.2 °F 70.0 °F 71% 30.04 in 10.0 mi Variable 3.5 mph - N/A   Overcast
9:08 AM 80.6 °F 83.9 °F 69.8 °F 70% 30.06 in 10.0 mi Variable 4.6 mph - N/A   Overcast
9:53 AM 82.0 °F 85.9 °F 70.0 °F 67% 30.04 in 10.0 mi SSW 4.6 mph - N/A   Mostly Cloudy
10:13 AM 82.4 °F 86.3 °F 69.8 °F 66% 30.07 in 10.0 mi SW 6.9 mph - N/A   Mostly Cloudy
10:53 AM 84.9 °F 88.8 °F 69.1 °F 59% 30.04 in 10.0 mi South 9.2 mph - N/A   Scattered Clouds
11:53 AM 87.1 °F 92.0 °F 70.0 °F 57% 30.03 in 10.0 mi Variable 5.8 mph - N/A   Partly Cloudy
12:53 PM 88.0 °F 91.4 °F 68.0 °F 51% 30.01 in 10.0 mi SSW 3.5 mph - N/A   Scattered Clouds
1:53 PM 90.0 °F 93.6 °F 68.0 °F 48% 29.98 in 10.0 mi ESE 8.1 mph - N/A   Mostly Cloudy
2:53 PM 90.0 °F 92.4 °F 66.0 °F 45% 29.94 in 10.0 mi SE 5.8 mph - N/A   Mostly Cloudy
3:53 PM 93.0 °F 95.0 °F 64.9 °F 39% 29.92 in 10.0 mi SSW 6.9 mph - N/A   Scattered Clouds
4:53 PM 91.9 °F 95.4 °F 66.9 °F 44% 29.91 in 10.0 mi East 11.5 mph - N/A   Mostly Cloudy
5:53 PM 90.0 °F 92.4 °F 66.0 °F 45% 29.90 in 10.0 mi East 6.9 mph - N/A   Clear
6:53 PM 88.0 °F 90.3 °F 66.0 °F 48% 29.89 in 10.0 mi East 6.9 mph - N/A   Scattered Clouds
7:53 PM 84.0 °F 86.5 °F 66.9 °F 56% 29.90 in 10.0 mi East 3.5 mph - N/A   Partly Cloudy
8:53 PM 81.0 °F 83.3 °F 66.9 °F 62% 29.92 in 10.0 mi East 4.6 mph - N/A   Clear
9:53 PM 82.0 °F 84.5 °F 66.9 °F 60% 29.93 in 10.0 mi East 3.5 mph - N/A   Clear
10:53 PM 80.1 °F 82.3 °F 66.9 °F 64% 29.93 in 10.0 mi East 4.6 mph - N/A   Clear
11:53 PM 81.0 °F 83.0 °F 66.0 °F 60% 29.92 in 10.0 mi Calm Calm - N/A   Clear